[[{"header":{"parameterUnit":"m.s-1","parameterCategory":1,"la1":30.2992,"la2":30.254,"lo1":-89.0895,"lo2":-89.0443,"dy":0.0025,"dx":0.0025,"nx":19,"ny":19,"refTime":"2026-03-08T03:00:00:Z","depth":0,"parameterNumber":2,"parameterNumberName":"U-component_of_WINDS"},"data":[0,0,0,-1.813,-1.8131,-1.8139,-1.8139,-1.8159,-1.8159,0,0,0,0,0,0,0,0,0,0,0,-1.8134,-1.8134,-1.813,-1.8131,-1.8139,-1.8139,-1.8159,-1.8159,0,0,0,0,0,0,0,0,0,0,0,-1.8134,-1.8134,-1.8135,-1.8131,-1.8139,-1.8139,-1.8159,-1.815,0,0,0,0,0,0,0,0,0,0,-1.814,-1.8149,-1.8134,-1.8135,-1.8131,-1.8139,-1.8139,-1.8149,-1.815,-1.816,0,-1.817,0,-1.8165,-1.8161,-1.8162,0,0,0,-1.8126,-1.8148,-1.8145,-1.8135,-1.8131,-1.8139,-1.8134,-1.8149,-1.8151,-1.8162,-1.817,-1.8171,-1.8166,-1.8162,-1.8162,-1.8233,-1.8233,0,0,-1.8126,-1.8139,-1.8144,-1.8146,-1.8145,-1.8134,-1.8134,-1.815,-1.816,-1.817,-1.8171,-1.8166,-1.8162,-1.8162,-1.8232,-1.8233,0,0,0,-1.8128,-1.8139,-1.8135,-1.8146,-1.8146,-1.8134,-1.8135,-1.816,-1.8157,-1.8171,-1.8166,-1.8162,-1.8162,-1.8232,-1.8233,-1.827,0,0,0,-1.8127,-1.814,-1.8135,-1.8143,-1.8146,-1.8153,-1.8144,-1.8156,-1.8158,-1.8166,-1.8162,-1.8163,-1.8231,-1.8232,-1.8268,-1.8286,0,0,0,-1.8132,-1.814,-1.8143,-1.8143,-1.8147,-1.8152,-1.8151,-1.8156,-1.8155,-1.8162,-1.8163,-1.8231,-1.8232,-1.8266,-1.8282,-1.8308,0,0,0,-1.814,-1.8177,-1.8144,-1.8184,-1.8147,-1.8176,-1.815,-1.8171,-1.8182,-1.8162,-1.8231,-1.8232,-1.8265,-1.828,-1.8305,-1.833,-1.8342,0,0,-1.8194,-1.8184,-1.8207,-1.8177,-1.8215,-1.8174,-1.8218,-1.8215,-1.8205,-1.8224,-1.8226,-1.8269,-1.8282,-1.8307,-1.8406,-1.8415,0,0,0,-1.8228,-1.8244,-1.8252,-1.8262,-1.8261,-1.8262,-1.8252,-1.8251,-1.8267,-1.8217,-1.8285,-1.8293,-1.8307,-1.8318,-1.8326,-1.8337,-1.8239,-1.8238,-1.8238,-1.8323,-1.8307,-1.8343,-1.8328,-1.8339,-1.8328,-1.8335,-1.8333,-1.8314,-1.833,-1.8335,-1.8397,-1.8411,-1.8417,-1.8428,-1.8348,-1.8349,-1.8349,-1.8349,-1.84,-1.842,-1.8394,-1.842,-1.8403,-1.8425,-1.8417,-1.8403,-1.842,-1.8392,-1.8404,-1.8372,-1.8427,-1.8437,-1.8351,-1.8351,-1.8351,-1.835,-1.835,-1.8458,-1.8465,-1.8464,-1.8477,-1.849,-1.8474,-1.8492,-1.8477,-1.8463,-1.8475,-1.8478,-1.8477,-1.8474,-1.8477,-1.8478,-1.8478,-1.8478,-1.8478,-1.8478,-1.8519,-1.8517,-1.8533,-1.8536,-1.8541,-1.8545,-1.8536,-1.854,-1.8541,-1.8528,-1.8528,-1.8508,-1.8436,-1.8418,-1.8482,-1.8481,-1.8481,-1.848,-1.848,-1.8601,-1.858,-1.8606,-1.8611,-1.8613,-1.8626,-1.8607,-1.8617,-1.8619,-1.8628,-1.8606,-1.8556,-1.8544,-1.8538,-1.8522,-1.861,-1.8609,-1.861,-1.861,-1.865,-1.8643,-1.8666,-1.8674,-1.8681,-1.8666,-1.8697,-1.869,-1.868,-1.868,-1.8666,-1.8644,-1.8639,-1.8631,-1.8622,-1.8607,-1.8714,-1.8714,-1.8714,-1.8699,-1.8692,-1.872,-1.8709,-1.871,-1.8711,-1.8739,-1.875,-1.8734,-1.8718,-1.8679,-1.8675,-1.8641,-1.863,-1.8612,-1.8599,-1.8571,0,0]},{"header":{"parameterUnit":"m.s-1","parameterCategory":1,"la1":30.2992,"la2":30.254,"lo1":-89.0895,"lo2":-89.0443,"dy":0.0025,"dx":0.0025,"nx":19,"ny":19,"refTime":"2026-03-08T03:00:00:Z","depth":0,"parameterNumber":3,"parameterNumberName":"V-component_of_WINDS"},"data":[0,0,0,2.1541,2.154,2.1504,2.1503,2.1454,2.1453,0,0,0,0,0,0,0,0,0,0,0,2.155,2.1549,2.1541,2.154,2.1504,2.1503,2.1454,2.1453,0,0,0,0,0,0,0,0,0,0,0,2.155,2.1549,2.1549,2.154,2.1504,2.1503,2.1454,2.1483,0,0,0,0,0,0,0,0,0,0,2.1519,2.1524,2.1549,2.1549,2.154,2.1504,2.1503,2.1484,2.1481,2.1469,0,2.1457,0,2.1454,2.145,2.1449,0,0,0,2.1542,2.1527,2.1519,2.1549,2.154,2.1504,2.1521,2.1482,2.1479,2.1465,2.1456,2.1455,2.1454,2.1449,2.1449,2.1376,2.1376,0,0,2.1544,2.1541,2.1522,2.1517,2.1522,2.1522,2.1519,2.148,2.1471,2.1456,2.1454,2.1453,2.1449,2.1449,2.1377,2.1376,0,0,0,2.1549,2.1543,2.1536,2.1519,2.1512,2.1521,2.1518,2.1473,2.1471,2.1453,2.1452,2.1449,2.1448,2.1377,2.1376,2.1354,0,0,0,2.155,2.1546,2.1537,2.1535,2.1513,2.1492,2.1511,2.1474,2.1469,2.1453,2.1449,2.1447,2.1377,2.1377,2.1356,2.1344,0,0,0,2.1553,2.1546,2.154,2.1535,2.1519,2.1492,2.1488,2.1473,2.1469,2.1449,2.1447,2.1378,2.1377,2.1357,2.1347,2.1326,0,0,0,2.1555,2.1518,2.1539,2.1499,2.152,2.1479,2.1489,2.1458,2.1439,2.1448,2.1377,2.1376,2.1358,2.1348,2.1328,2.1309,2.1301,0,0,2.1508,2.1513,2.1489,2.1507,2.1463,2.1485,2.1438,2.1421,2.1421,2.1392,2.139,2.1356,2.1347,2.1326,2.1254,2.1248,0,0,0,2.1474,2.1457,2.1446,2.1428,2.1416,2.1406,2.1398,2.1393,2.1368,2.1405,2.1342,2.1337,2.1325,2.1317,2.1311,2.1302,2.1372,2.1372,2.1372,2.1402,2.1406,2.1369,2.137,2.1352,2.1347,2.1334,2.1326,2.1333,2.1318,2.1309,2.1265,2.1255,2.1251,2.1241,2.1299,2.1299,2.1299,2.1299,2.1334,2.1312,2.1326,2.1295,2.13,2.1274,2.1269,2.1275,2.1253,2.1271,2.1261,2.1282,2.1243,2.1236,2.1297,2.1298,2.1298,2.1298,2.1298,2.1288,2.1279,2.1275,2.1253,2.1235,2.1238,2.1217,2.1221,2.1226,2.1216,2.1209,2.1209,2.1211,2.1212,2.1212,2.1212,2.1211,2.1211,2.1211,2.1243,2.1239,2.1221,2.1208,2.12,2.1189,2.1186,2.1178,2.117,2.1176,2.1176,2.1186,2.1239,2.1252,2.1209,2.1209,2.121,2.121,2.121,2.1174,2.1191,2.1163,2.1155,2.1143,2.1127,2.1135,2.1119,2.1113,2.1103,2.1117,2.1154,2.1159,2.1164,2.1175,2.1115,2.1115,2.1115,2.1115,2.1136,2.114,2.1114,2.1102,2.109,2.1095,2.1066,2.1064,2.1065,2.1063,2.1072,2.1088,2.1092,2.1095,2.1101,2.1112,2.1036,2.1036,2.1036,2.1095,2.1099,2.1072,2.1074,2.1066,2.106,2.1033,2.1019,2.1024,2.1033,2.1061,2.1064,2.109,2.1097,2.1106,2.1115,2.1135,0,0]}]]